STARLINK-32915, 63152

Orbit data source: Space-Track

STARLINK-32915, 63152 is a payload satellite owned by SpaceX/Seattle (US) in LEO that was launched on Mon, 03 Mar 2025 UTC via an FALCON 9 launch vehicle from the Air Force Eastern Test Range (AFETR). Payload-class satellites include a variety of spacecraft equipped with specific instruments for various scientific and technological missions. These include communications satellites like Starlink; space stations such as the ISS; scientific satellites like the Hubble; Earth observation satellites from companies like Planet Labs, Umbra, and HawkEye 360; GPS; miniature CubeSats for education and research; and military/defense satellites.

Loading next visibility...
Identifier
63152, 2025-043W
Orbit
LEO
Country
Flag of USUS
Related business
Manufacturer
SpaceX/Seattle
Mission
Operational Commercial Communications
Bus & Motor
STARLINK V2M, Unknown motor
Mass
730 kg wet, ~700 kg dry
Launch date (UTC)
2025-03-03 (2 years ago)
Launch vehicle
FALCON 9
Launch site
Air Force Eastern Test Range (AFETR)
Object type
Payload
Rocket body
Debris
Shape & HBR
Box + 2 Pan, 17.7 m
Radar Cross Section
33.884 m², Large (>1 m²)

Expand to show TLE details & history
Last TLE update: 11 hours ago

TLE from 11 hours ago
0 STARLINK-32915
1 63152U 25043W   26255.82977916  .00022650  00000-0  82993-3 0  9999
2 63152  43.0024  46.1811 0001721 274.5092  85.5564 15.27585326 85902
Epoch: 2026-09-12T19:54Z
TLE epoch observation values (Epoch: 2026-09-12T19:54:52.919Z)
Latitude
0.00005°
Longitude
115.62749°
Altitude
482.718 km
Speed
7.626 km/s
True Right ascension
03h 04m 43s
True Declination
0° 00' 00"
Sunlit
Object was in full shadow at epoch
Visualization orbit readout
Latitude
Unknown
Longitude
Unknown
Altitude
Unknown
Speed
Unknown
Apparent Right ascension
Unknown
Apparent Declination
Unknown
Sunlit
N/A
Visualization observer readout
Local Sidereal Time
23:49:29
Azimuth
Unknown
Elevation
Unknown
Doppler factor
Unknown
Orbital elements
Apogee altitude
486.159 km
Perigee altitude
483.797 km
Semi-major axis
6,863.115 km
Eccentricity
0.00017
Inclination
43.0024°
RAAN
46.1811°
Arg. of periapsis
274.5092°
True anomaly
85.57606°
Mean anomaly
85.5564°
Eccentric anomaly
85.56623°
Mean motion
3.81734 °/min
Orbital period
94.31 mins
BSTAR
0.00082993
Loading maneuver chart data...
Computing Atmospheric mass density...
Loading historical data...
Loading historical data...
Loading historical data...
Loading historical data...
Loading historical data...
Loading historical data...
Loading historical data...

Documentation

Showing up to 5 results
|